GW6233 Weather Reports


Display with metric or nautical units.
time (UTC)temp
F
wind
direction
speed
MPH
gust
MPH
rain 1hr
in
rain 24hr
in
rain mn
in
humidity
%
barometer
mb
20260505022045 60 150 1.0 2.0 0.00 0.00 0.00 66 1010.3
20260505021041 60 147 1.0 2.0 0.00 0.00 0.00 65 1010.4
20260505020040 61 139 1.0 2.0 0.00 0.00 0.00 63 1010.4
20260505015038 61 159 1.0 2.0 0.00 0.00 0.00 61 1010.3
20260505014037 61 140 1.0 2.0 0.00 0.00 0.00 59 1010.3
20260505013034 62 145 1.0 1.0 0.00 0.00 0.00 57 1010.2
20260505012032 62 135 1.0 1.0 0.00 0.00 0.00 56 1010.2
20260505011030 63 147 1.0 2.0 0.00 0.00 0.00 55 1010.0
20260505010027 64 151 1.0 1.0 0.00 0.00 0.00 54 1009.9
20260505005026 64 135 1.0 1.0 0.00 0.00 0.00 53 1009.9
20260505004024 64 126 1.0 2.0 0.00 0.00 0.00 53 1009.8
20260505003023 65 143 1.0 4.0 0.00 0.00 0.00 52 1009.7
20260505002020 65 150 1.0 1.0 0.00 0.00 0.00 51 1009.6
20260505001018 66 151 1.0 1.0 0.00 0.00 0.00 50 1009.4
20260505000017 67 153 1.0 1.0 0.00 0.00 0.00 48 1009.4
20260504235014 68 159 1.0 1.0 0.00 0.00 0.00 48 1009.4
20260504234011 69 143 1.0 2.0 0.00 0.00 0.00 46 1009.4
20260504233009 69 176 1.0 2.0 0.00 0.00 0.00 46 1009.4
20260504232007 70 176 1.0 2.0 0.00 0.00 0.00 45 1009.3
20260504231008 71 156 1.0 3.0 0.00 0.00 0.00 44 1009.3
20260504230004 71 211 1.0 4.0 0.00 0.00 0.00 44 1009.3
20260504225001 72 198 1.0 4.0 0.00 0.00 0.00 42 1009.3
20260504224001 72 204 1.0 4.0 0.00 0.00 0.00 42 1009.3
20260504222958 73 207 1.0 3.0 0.00 0.00 0.00 41 1009.4
20260504221955 74 206 1.0 6.0 0.00 0.00 0.00 41 1009.3
20260504220954 76 222 1.0 3.0 0.00 0.00 0.00 40 1009.3
20260504215953 76 219 2.0 6.0 0.00 0.00 0.00 39 1009.3
20260504214950 76 220 3.0 6.0 0.00 0.00 0.00 39 1009.3
20260504214008 77 211 2.0 6.0 0.00 0.00 0.00 39 1009.3
20260504212946 76 214 2.0 4.0 0.00 0.00 0.00 39 1009.3
20260504211943 77 202 2.0 6.0 0.00 0.00 0.00 39 1009.2
20260504210942 77 209 1.0 6.0 0.00 0.00 0.00 39 1009.2
20260504205940 77 215 2.0 6.0 0.00 0.00 0.00 38 1009.2
20260504204939 77 215 2.0 6.0 0.00 0.00 0.00 39 1009.1
20260504203937 77 217 3.0 7.0 0.00 0.00 0.00 38 1009.2
20260504202935 77 213 2.0 4.0 0.00 0.00 0.00 38 1009.2
20260504201933 77 219 3.0 6.0 0.00 0.00 0.00 38 1009.4
20260504200951 78 227 1.0 4.0 0.00 0.00 0.00 39 1009.5
20260504195928 78 202 1.0 6.0 0.00 0.00 0.00 39 1009.5
20260504194927 77 199 1.0 4.0 0.00 0.00 0.00 39 1009.6
20260504193924 77 189 2.0 4.0 0.00 0.00 0.00 39 1009.7
20260504192943 77 235 2.0 6.0 0.00 0.00 0.00 39 1009.9
20260504191921 77 235 2.0 6.0 0.00 0.00 0.00 40 1009.9
20260504190918 77 236 2.0 6.0 0.00 0.00 0.00 39 1010.0
20260504185916 76 227 1.0 4.0 0.00 0.00 0.00 39 1010.3
20260504184918 76 226 3.0 7.0 0.00 0.00 0.00 40 1010.5
20260504183913 76 212 2.0 7.0 0.00 0.00 0.00 40 1010.6
20260504182910 76 231 2.0 6.0 0.00 0.00 0.00 40 1010.7
20260504181929 76 233 2.0 7.0 0.00 0.00 0.00 41 1010.9
20260504180906 75 232 2.0 6.0 0.00 0.00 0.00 41 1011.0
20260504175905 74 223 3.0 6.0 0.00 0.00 0.00 40 1011.2
20260504174903 74 210 2.0 6.0 0.00 0.00 0.00 40 1011.2
20260504173901 74 217 2.0 7.0 0.00 0.00 0.00 42 1011.4
20260504172859 73 208 2.0 4.0 0.00 0.00 0.00 43 1011.5
20260504171857 72 220 2.0 6.0 0.00 0.00 0.00 42 1011.6
20260504170855 72 259 2.0 6.0 0.00 0.00 0.00 43 1011.7
20260504150831 63 215 1.0 4.0 0.00 0.00 0.00 59 1012.7
20260504140858 60 218 2.0 4.0 0.00 0.00 0.00 65 1012.9
20260504081727 46 203 1.0 2.0 0.00 0.00 0.00 71 1014.1
20260504080705 45 207 1.0 2.0 0.00 0.00 0.00 71 1014.1
20260504050631 45 199 1.0 2.0 0.00 0.00 0.00 66 1013.8
20260504045628 45 207 1.0 2.0 0.00 0.00 0.00 66 1013.8
20260504044626 45 210 1.0 3.0 0.00 0.00 0.00 67 1013.6
20260504043625 45 194 1.0 2.0 0.00 0.00 0.00 67 1013.6
20260504042622 45 171 1.0 2.0 0.00 0.00 0.00 67 1013.5
20260504041620 45 176 1.0 1.0 0.00 0.00 0.00 67 1013.3
20260504040618 44 185 1.0 1.0 0.00 0.00 0.00 67 1013.3
20260504035615 45 168 1.0 1.0 0.00 0.00 0.00 66 1013.2
20260504034636 45 161 1.0 1.0 0.00 0.00 0.00 66 1013.2
20260504033612 45 198 1.0 1.0 0.00 0.00 0.00 66 1013.2
20260504032610 45 172 1.0 1.0 0.00 0.00 0.00 64 1013.1
20260504031608 45 163 1.0 1.0 0.00 0.00 0.00 64 1013.1
20260504030606 45 135 1.0 1.0 0.00 0.00 0.00 63 1013.1
20260504025624 46 126 1.0 1.0 0.00 0.00 0.00 63 1013.1
20260504024625 46 164 1.0 1.0 0.00 0.00 0.00 63 1013.1
20260504023601 46 153 1.0 1.0 0.00 0.00 0.00 62 1013.2